Date String (YYYY-MM-DD hh:mm:ss) UTC,Instrument flags,Ambient pressure (hPa),Sample flow (lpm),Bypass flow (lpm),Sample temperature (°C),Ambient temperature (°C),ASC tube jacket temperature (°C),LED temperature (°C),Box temperature (°C),Sample RH (%),Span deviation,Mass concentration (μg/m³),Mass concentration (μg/m³),Mass concentration (μg/m³)
DateTimeUTC,F1_M11,P_M11,Q1_M11,Q2_M11,T1_M11,T2_M11,T3_M11,T4_M11,T5_M11,U1_M11,ZSPAN_M11,X0_M11,X2_M11,X1_M11
2021-10-29 02:00:00,,0832.1,5.01,0.00,28.0,27.1,00.0,37.0,29.8,11.4,0000.0,0013.48,0004.61,0003.82
2021-10-29 02:01:00,,0832.1,5.00,0.00,28.0,27.2,00.0,37.0,29.8,11.5,0000.0,0014.36,0004.69,0003.91
2021-10-29 02:02:00,,0832.1,4.99,0.00,28.0,27.2,00.0,37.0,29.8,11.4,0000.0,0015.85,0004.82,0003.97
2021-10-29 02:03:00,,0832.2,4.99,0.00,28.0,27.2,00.0,37.0,29.8,11.4,0000.0,0016.17,0004.97,0004.06
2021-10-29 02:04:00,,0832.1,5.01,0.00,28.0,27.2,00.0,37.0,29.8,11.4,0000.0,0016.11,0005.10,0004.16
2021-10-29 02:05:00,,0832.1,5.00,0.00,28.0,27.2,00.0,37.0,29.8,11.4,0000.0,0016.62,0005.20,0004.24
2021-10-29 02:06:00,,0832.1,4.99,0.00,28.0,27.2,00.0,37.0,29.9,11.4,0000.0,0016.75,0005.26,0004.29
2021-10-29 02:07:00,,0832.1,5.01,0.00,28.0,27.2,00.0,37.0,29.9,11.4,0000.0,0016.42,0005.28,0004.33
2021-10-29 02:08:00,,0832.1,5.00,0.00,28.0,27.2,00.0,37.0,29.8,11.4,0000.0,0016.59,0005.31,0004.37
2021-10-29 02:09:00,,0832.2,5.00,0.00,28.0,27.1,00.0,37.0,29.8,11.4,0000.0,0017.06,0005.34,0004.38
2021-10-29 02:10:00,,0832.2,5.01,0.00,27.9,27.1,00.0,37.0,29.7,11.5,0000.0,0016.42,0005.38,0004.40
2021-10-29 02:11:00,,0832.1,4.99,0.00,27.9,27.0,00.0,37.0,29.7,11.5,0000.0,0016.09,0005.39,0004.44
2021-10-29 02:12:00,,0832.2,5.01,0.00,27.9,27.0,00.0,37.0,29.7,11.5,0000.0,0016.36,0005.44,0004.45
2021-10-29 02:13:00,,0832.3,4.98,0.00,27.9,27.0,00.0,37.0,29.7,11.5,0000.0,0015.18,0005.41,0004.45
2021-10-29 02:14:00,,0832.3,4.99,0.00,27.9,27.0,00.0,37.0,29.7,11.6,0000.0,0015.81,0005.38,0004.45
2021-10-29 02:15:00,,0832.3,5.00,0.00,27.9,27.0,00.0,36.9,29.7,11.7,0000.0,0016.38,0005.36,0004.47
2021-10-29 02:16:00,,0832.3,5.00,0.00,27.9,27.0,00.0,36.9,29.7,11.7,0000.0,0015.84,0005.35,0004.47
2021-10-29 02:17:00,,0832.3,5.00,0.00,27.8,27.0,00.0,36.9,29.7,11.6,0000.0,0015.14,0005.38,0004.48
2021-10-29 02:18:00,,0832.3,5.00,0.00,27.9,27.0,00.0,36.9,29.7,11.7,0000.0,0015.84,0005.42,0004.50
2021-10-29 02:19:00,,0832.2,4.99,0.00,27.9,27.0,00.0,36.9,29.7,11.7,0000.0,0017.29,0005.54,0004.53
2021-10-29 02:20:00,,0832.3,4.99,0.00,27.9,27.0,00.0,36.9,29.7,11.7,0000.0,0017.46,0005.62,0004.56
2021-10-29 02:21:00,,0832.3,5.00,0.00,27.9,27.0,00.0,36.9,29.7,11.6,0000.0,0017.31,0005.69,0004.60
2021-10-29 02:22:00,,0832.3,5.00,0.00,27.9,27.0,00.0,36.9,29.7,11.7,0000.0,0017.57,0005.73,0004.62
2021-10-29 02:23:00,,0832.4,5.01,0.00,27.9,27.0,00.0,36.9,29.7,11.7,0000.0,0017.26,0005.76,0004.66
2021-10-29 02:24:00,,0832.4,4.99,0.00,27.8,27.0,00.0,36.9,29.6,11.8,0000.0,0017.60,0005.84,0004.71
2021-10-29 02:25:00,,0832.4,5.01,0.00,27.8,27.0,00.0,36.9,29.6,11.8,0000.0,0017.03,0005.90,0004.75
2021-10-29 02:26:00,,0832.3,5.01,0.00,27.8,27.0,00.0,36.9,29.6,11.8,0000.0,0016.26,0005.99,0004.76
2021-10-29 02:27:00,,0832.3,5.01,0.00,27.8,27.0,00.0,36.9,29.6,11.7,0000.0,0016.47,0006.04,0004.79
2021-10-29 02:28:00,,0832.4,4.99,0.00,27.8,26.9,00.0,36.9,29.6,11.7,0000.0,0016.83,0006.04,0004.80
2021-10-29 02:29:00,,0832.5,5.01,0.00,27.8,26.9,00.0,36.9,29.5,11.9,0000.0,0016.13,0006.05,0004.80
2021-10-29 02:30:00,,0832.4,5.01,0.00,27.8,26.9,00.0,36.9,29.6,12.0,0000.0,0014.44,0006.01,0004.80
2021-10-29 02:31:00,,0832.4,5.00,0.00,27.8,26.9,00.0,36.9,29.6,12.0,0000.0,0013.96,0005.97,0004.81
2021-10-29 02:32:00,,0832.3,5.00,0.00,27.8,26.9,00.0,36.8,29.6,12.1,0000.0,0014.40,0005.98,0004.82
2021-10-29 02:33:00,,0832.4,5.00,0.00,27.8,26.9,00.0,36.8,29.6,12.0,0000.0,0015.32,0006.07,0004.85
2021-10-29 02:34:00,,0832.4,4.98,0.00,27.8,27.0,00.0,36.8,29.6,12.0,0000.0,0015.12,0006.07,0004.86
2021-10-29 02:35:00,,0832.5,5.00,0.00,27.8,27.0,00.0,36.8,29.6,12.0,0000.0,0014.63,0006.07,0004.89
2021-10-29 02:36:00,,0832.5,5.00,0.00,27.8,27.0,00.0,36.8,29.6,12.0,0000.0,0014.81,0006.11,0004.92
2021-10-29 02:37:00,,0832.4,5.00,0.00,27.8,27.0,00.0,36.8,29.6,12.0,0000.0,0014.83,0006.11,0004.95
2021-10-29 02:38:00,,0832.4,5.01,0.00,27.8,26.9,00.0,36.8,29.6,12.0,0000.0,0015.70,0006.18,0004.97
2021-10-29 02:39:00,,0832.4,5.01,0.00,27.8,27.0,00.0,36.8,29.6,12.0,0000.0,0016.45,0006.28,0005.00
2021-10-29 02:40:00,,0832.5,5.01,0.00,27.8,27.0,00.0,36.8,29.7,12.0,0000.0,0017.58,0006.38,0005.02
2021-10-29 02:41:00,,0832.5,5.00,0.00,27.8,27.0,00.0,36.8,29.7,11.9,0000.0,0018.51,0006.45,0005.04
2021-10-29 02:42:00,,0832.4,5.00,0.00,27.8,27.0,00.0,36.8,29.7,11.9,0000.0,0018.99,0006.48,0005.05
2021-10-29 02:43:00,,0832.5,4.99,0.00,27.8,26.9,00.0,36.8,29.7,11.9,0000.0,0018.63,0006.52,0005.07
2021-10-29 02:44:00,,0832.5,4.98,0.00,27.8,26.9,00.0,36.8,29.7,11.9,0000.0,0018.42,0006.57,0005.10
2021-10-29 02:45:00,,0832.5,5.02,0.00,27.8,26.9,00.0,36.8,29.7,11.9,0000.0,0018.56,0006.64,0005.15
2021-10-29 02:46:00,,0832.5,5.00,0.00,27.8,26.9,00.0,36.8,29.7,11.9,0000.0,0019.86,0006.70,0005.18
2021-10-29 02:47:00,,0832.5,4.99,0.00,27.8,26.9,00.0,36.8,29.6,11.9,0000.0,0020.63,0006.75,0005.19
2021-10-29 02:48:00,,0832.6,5.01,0.00,27.8,26.9,00.0,36.8,29.6,11.9,0000.0,0020.86,0006.76,0005.20
2021-10-29 02:49:00,,0832.6,5.01,0.00,27.8,26.9,00.0,36.8,29.6,11.9,0000.0,0021.26,0006.75,0005.21
2021-10-29 02:50:00,,0832.7,5.01,0.00,27.8,26.9,00.0,36.8,29.6,11.9,0000.0,0020.44,0006.73,0005.23
2021-10-29 02:51:00,,0832.7,4.99,0.00,27.8,26.9,00.0,36.8,29.6,11.9,0000.0,0020.20,0006.72,0005.25
2021-10-29 02:52:00,,0832.6,5.01,0.00,27.8,26.9,00.0,36.8,29.6,11.9,0000.0,0019.90,0006.72,0005.27
2021-10-29 02:53:00,,0832.7,5.00,0.00,27.8,26.9,00.0,36.8,29.6,11.9,0000.0,0020.19,0006.74,0005.27
2021-10-29 02:54:00,,0832.6,5.00,0.00,27.8,26.9,00.0,36.8,29.6,11.8,0000.0,0021.06,0006.74,0005.27
2021-10-29 02:55:00,,0832.5,5.01,0.00,27.8,26.9,00.0,36.8,29.6,11.8,0000.0,0021.21,0006.65,0005.25
2021-10-29 02:56:00,,0832.5,5.00,0.00,27.8,26.9,00.0,36.8,29.6,11.8,0000.0,0020.66,0006.57,0005.23
2021-10-29 02:57:00,,0832.5,5.00,0.00,27.8,26.9,00.0,36.8,29.6,11.8,0000.0,0021.67,0006.62,0005.20
2021-10-29 02:58:00,,0832.5,5.01,0.00,27.8,26.9,00.0,36.8,29.6,11.8,0000.0,0020.67,0006.58,0005.17
2021-10-29 02:59:00,,0832.6,4.98,0.00,27.8,26.9,00.0,36.8,29.5,11.8,0000.0,0020.31,0006.58,0005.16
